Time,TemperatureF,DewpointF,PressureIn,WindDirection,WindDirectionDegrees,WindSpeedMPH,WindSpeedGustMPH,Humidity,HourlyPrecipIn,Conditions,Clouds,dailyrainin,SoftwareType,DateUTC
2013-08-03 00:04:00,66.4,64.3,29.80,East,83,0.0,0.0,93,0.00,,,0.00,Wunderground v.1.15,2013-08-03 04:04:00,
2013-08-03 00:09:00,66.0,64.2,29.80,East,84,0.0,0.0,94,0.00,,,0.00,Wunderground v.1.15,2013-08-03 04:09:00,
2013-08-03 00:13:00,65.8,64.0,29.80,East,84,0.0,0.0,94,0.00,,,0.00,Wunderground v.1.15,2013-08-03 04:13:00,
2013-08-03 00:19:00,65.5,63.7,29.80,East,83,0.0,0.0,94,0.00,,,0.00,Wunderground v.1.15,2013-08-03 04:19:00,
2013-08-03 00:29:00,65.2,63.7,29.81,East,84,0.0,0.0,95,0.00,,,0.00,Wunderground v.1.15,2013-08-03 04:29:00,
2013-08-03 00:33:00,65.1,63.9,29.80,East,83,0.0,0.0,96,0.00,,,0.00,Wunderground v.1.15,2013-08-03 04:33:00,
2013-08-03 00:38:00,65.0,63.8,29.80,East,84,0.0,0.0,96,0.00,,,0.00,Wunderground v.1.15,2013-08-03 04:38:00,
2013-08-03 00:43:00,65.0,63.8,29.80,East,83,0.0,0.0,96,0.00,,,0.00,Wunderground v.1.15,2013-08-03 04:43:00,
2013-08-03 00:48:00,65.0,63.8,29.79,East,84,0.0,0.0,96,0.00,,,0.00,Wunderground v.1.15,2013-08-03 04:48:00,
2013-08-03 00:58:00,65.1,64.2,29.79,East,83,0.0,0.0,97,0.00,,,0.00,Wunderground v.1.15,2013-08-03 04:58:00,
2013-08-03 01:03:00,65.0,64.1,29.79,East,84,0.0,0.0,97,0.00,,,0.00,Wunderground v.1.15,2013-08-03 05:03:00,
2013-08-03 01:08:00,65.0,64.1,29.80,East,83,0.0,0.0,97,0.00,,,0.00,Wunderground v.1.15,2013-08-03 05:08:00,
2013-08-03 01:13:00,64.9,64.0,29.80,East,84,0.0,0.0,97,0.00,,,0.00,Wunderground v.1.15,2013-08-03 05:13:00,
2013-08-03 01:19:00,64.8,63.9,29.80,East,83,0.0,0.0,97,0.00,,,0.00,Wunderground v.1.15,2013-08-03 05:19:00,
2013-08-03 01:24:00,64.7,63.8,29.79,East,84,0.0,0.0,97,0.00,,,0.00,Wunderground v.1.15,2013-08-03 05:24:00,
2013-08-03 01:29:00,64.7,63.8,29.79,East,84,0.0,0.0,97,0.00,,,0.00,Wunderground v.1.15,2013-08-03 05:29:00,
2013-08-03 01:39:00,64.7,64.1,29.79,East,83,0.0,0.0,98,0.00,,,0.00,Wunderground v.1.15,2013-08-03 05:39:00,
2013-08-03 01:43:00,64.6,64.0,29.78,East,84,0.0,0.0,98,0.00,,,0.00,Wunderground v.1.15,2013-08-03 05:43:00,
2013-08-03 01:49:00,64.5,63.9,29.78,East,83,0.0,0.0,98,0.00,,,0.00,Wunderground v.1.15,2013-08-03 05:49:00,
2013-08-03 01:58:00,64.4,63.8,29.78,East,84,0.0,0.0,98,0.00,,,0.00,Wunderground v.1.15,2013-08-03 05:58:00,
2013-08-03 02:08:00,64.1,63.5,29.77,East,84,0.0,0.0,98,0.00,,,0.00,Wunderground v.1.15,2013-08-03 06:08:00,
2013-08-03 02:13:00,64.0,63.4,29.77,East,84,0.0,0.0,98,0.00,,,0.00,Wunderground v.1.15,2013-08-03 06:13:00,
2013-08-03 02:18:00,63.9,63.3,29.77,East,83,0.0,0.0,98,0.00,,,0.00,Wunderground v.1.15,2013-08-03 06:18:00,
2013-08-03 02:23:00,63.8,63.2,29.76,East,84,0.0,0.0,98,0.00,,,0.00,Wunderground v.1.15,2013-08-03 06:23:00,
2013-08-03 02:28:00,63.7,63.1,29.76,East,84,0.0,0.0,98,0.00,,,0.00,Wunderground v.1.15,2013-08-03 06:28:00,
2013-08-03 02:33:00,63.6,63.0,29.76,East,83,0.0,0.0,98,0.00,,,0.00,Wunderground v.1.15,2013-08-03 06:33:00,
2013-08-03 02:38:00,63.6,63.0,29.76,East,84,0.0,0.0,98,0.00,,,0.00,Wunderground v.1.15,2013-08-03 06:38:00,
2013-08-03 02:43:00,63.6,63.0,29.75,East,83,0.0,0.0,98,0.00,,,0.00,Wunderground v.1.15,2013-08-03 06:43:00,
2013-08-03 02:49:00,63.5,62.9,29.75,East,84,0.0,0.0,98,0.00,,,0.00,Wunderground v.1.15,2013-08-03 06:49:00,
2013-08-03 02:59:00,63.5,63.2,29.75,East,83,0.0,0.0,99,0.00,,,0.00,Wunderground v.1.15,2013-08-03 06:59:00,
2013-08-03 03:04:00,63.5,63.2,29.75,East,83,0.0,0.0,99,0.00,,,0.00,Wunderground v.1.15,2013-08-03 07:04:00,
2013-08-03 03:13:00,63.3,62.7,29.75,East,84,0.0,0.0,98,0.00,,,0.00,Wunderground v.1.15,2013-08-03 07:13:00,
2013-08-03 03:18:00,63.3,62.7,29.75,East,84,0.0,0.0,98,0.00,,,0.00,Wunderground v.1.15,2013-08-03 07:18:00,
2013-08-03 03:24:00,63.2,62.9,29.75,East,83,0.0,0.0,99,0.00,,,0.00,Wunderground v.1.15,2013-08-03 07:24:00,
2013-08-03 03:34:00,63.1,62.8,29.75,East,83,0.0,0.0,99,0.00,,,0.00,Wunderground v.1.15,2013-08-03 07:34:00,
2013-08-03 03:39:00,63.0,62.7,29.75,East,83,0.0,0.0,99,0.00,,,0.00,Wunderground v.1.15,2013-08-03 07:39:00,
2013-08-03 03:44:00,63.0,62.7,29.75,East,84,0.0,0.0,99,0.00,,,0.00,Wunderground v.1.15,2013-08-03 07:44:00,
2013-08-03 03:48:00,63.1,62.8,29.74,East,84,0.0,0.0,99,0.00,,,0.00,Wunderground v.1.15,2013-08-03 07:48:00,
2013-08-03 03:59:00,63.2,62.9,29.75,East,84,0.0,0.0,99,0.00,,,0.00,Wunderground v.1.15,2013-08-03 07:59:00,
2013-08-03 04:09:00,63.1,62.8,29.75,East,83,0.0,0.0,99,0.00,,,0.00,Wunderground v.1.15,2013-08-03 08:09:00,
2013-08-03 04:19:00,63.1,62.8,29.75,East,84,0.0,0.0,99,0.00,,,0.00,Wunderground v.1.15,2013-08-03 08:19:00,
2013-08-03 04:24:00,63.1,62.8,29.75,East,84,0.0,0.0,99,0.00,,,0.00,Wunderground v.1.15,2013-08-03 08:24:00,
2013-08-03 04:34:00,63.1,62.8,29.75,East,84,0.0,0.0,99,0.00,,,0.00,Wunderground v.1.15,2013-08-03 08:34:00,
2013-08-03 04:39:00,63.0,62.7,29.75,East,84,0.0,0.0,99,0.00,,,0.00,Wunderground v.1.15,2013-08-03 08:39:00,
2013-08-03 04:49:00,62.9,62.6,29.75,East,84,0.0,0.0,99,0.00,,,0.00,Wunderground v.1.15,2013-08-03 08:49:00,
2013-08-03 04:54:00,62.8,62.5,29.75,East,84,0.0,0.0,99,0.00,,,0.00,Wunderground v.1.15,2013-08-03 08:54:00,
2013-08-03 04:59:00,62.7,62.4,29.75,East,84,0.0,0.0,99,0.00,,,0.00,Wunderground v.1.15,2013-08-03 08:59:00,
2013-08-03 05:04:00,62.7,62.4,29.75,East,84,0.0,0.0,99,0.00,,,0.00,Wunderground v.1.15,2013-08-03 09:04:00,
2013-08-03 05:14:00,62.6,62.3,29.75,East,84,0.0,0.0,99,0.00,,,0.00,Wunderground v.1.15,2013-08-03 09:14:00,
2013-08-03 05:23:00,62.6,62.3,29.75,East,84,0.0,0.0,99,0.00,,,0.00,Wunderground v.1.15,2013-08-03 09:23:00,
2013-08-03 05:28:00,62.7,62.4,29.75,East,84,0.0,0.0,99,0.00,,,0.00,Wunderground v.1.15,2013-08-03 09:28:00,
2013-08-03 05:34:00,62.7,62.4,29.75,East,84,0.0,0.0,99,0.00,,,0.00,Wunderground v.1.15,2013-08-03 09:34:00,
2013-08-03 05:39:00,62.7,62.4,29.75,East,84,0.0,0.0,99,0.00,,,0.00,Wunderground v.1.15,2013-08-03 09:39:00,
2013-08-03 05:44:00,62.8,62.5,29.75,East,83,0.0,0.0,99,0.00,,,0.00,Wunderground v.1.15,2013-08-03 09:44:00,
2013-08-03 05:49:00,62.7,62.4,29.76,East,84,0.0,0.0,99,0.00,,,0.00,Wunderground v.1.15,2013-08-03 09:49:00,
2013-08-03 05:54:00,62.6,62.3,29.76,East,83,0.0,0.0,99,0.00,,,0.00,Wunderground v.1.15,2013-08-03 09:54:00,
2013-08-03 05:59:00,62.6,62.3,29.76,East,84,0.0,0.0,99,0.00,,,0.00,Wunderground v.1.15,2013-08-03 09:59:00,
2013-08-03 06:03:00,62.6,62.6,29.76,East,84,0.0,0.0,100,0.00,,,0.00,Wunderground v.1.15,2013-08-03 10:03:00,
2013-08-03 06:13:00,62.6,62.6,29.77,East,83,0.0,0.0,100,0.00,,,0.00,Wunderground v.1.15,2013-08-03 10:13:00,
2013-08-03 06:18:00,62.6,62.6,29.76,East,83,0.0,0.0,100,0.00,,,0.00,Wunderground v.1.15,2013-08-03 10:18:00,
2013-08-03 06:28:00,62.6,62.6,29.76,East,84,0.0,0.0,100,0.00,,,0.00,Wunderground v.1.15,2013-08-03 10:28:00,
2013-08-03 06:33:00,62.7,62.7,29.76,East,84,0.0,0.0,100,0.00,,,0.00,Wunderground v.1.15,2013-08-03 10:33:00,
2013-08-03 06:38:00,62.7,62.7,29.76,East,83,0.0,0.0,100,0.00,,,0.00,Wunderground v.1.15,2013-08-03 10:38:00,
2013-08-03 06:43:00,62.8,62.8,29.76,East,84,0.0,0.0,100,0.00,,,0.00,Wunderground v.1.15,2013-08-03 10:43:00,
2013-08-03 06:49:00,62.9,62.9,29.77,East,83,0.0,0.0,100,0.00,,,0.00,Wunderground v.1.15,2013-08-03 10:49:00,
2013-08-03 06:54:00,63.0,63.0,29.77,East,84,0.0,0.0,100,0.00,,,0.00,Wunderground v.1.15,2013-08-03 10:54:00,
2013-08-03 06:59:00,63.0,63.0,29.77,East,83,0.0,0.0,100,0.00,,,0.00,Wunderground v.1.15,2013-08-03 10:59:00,
2013-08-03 07:09:00,63.2,63.2,29.77,East,84,0.0,0.0,100,0.00,,,0.00,Wunderground v.1.15,2013-08-03 11:09:00,
2013-08-03 07:14:00,63.3,63.3,29.76,East,84,0.0,0.0,100,0.00,,,0.00,Wunderground v.1.15,2013-08-03 11:14:00,
2013-08-03 07:19:00,63.4,63.4,29.76,East,83,0.0,0.0,100,0.00,,,0.00,Wunderground v.1.15,2013-08-03 11:19:00,
2013-08-03 07:29:00,63.6,63.6,29.76,East,84,0.0,0.0,100,0.00,,,0.00,Wunderground v.1.15,2013-08-03 11:29:00,
2013-08-03 07:38:00,63.9,63.9,29.76,East,84,0.0,0.0,100,0.00,,,0.00,Wunderground v.1.15,2013-08-03 11:38:00,
2013-08-03 07:43:00,64.2,64.2,29.76,East,84,0.0,0.0,100,0.00,,,0.00,Wunderground v.1.15,2013-08-03 11:43:00,
2013-08-03 07:49:00,64.5,64.5,29.75,East,84,0.0,0.0,100,0.00,,,0.00,Wunderground v.1.15,2013-08-03 11:49:00,
2013-08-03 07:59:00,65.1,65.1,29.75,East,83,0.0,0.0,100,0.00,,,0.00,Wunderground v.1.15,2013-08-03 11:59:00,
2013-08-03 08:04:00,65.4,65.4,29.75,East,84,0.0,0.0,100,0.00,,,0.00,Wunderground v.1.15,2013-08-03 12:04:00,
2013-08-03 08:14:00,66.0,66.0,29.75,East,84,0.0,0.0,100,0.00,,,0.00,Wunderground v.1.15,2013-08-03 12:14:00,
2013-08-03 08:18:00,66.2,66.2,29.75,East,84,0.0,0.0,100,0.00,,,0.00,Wunderground v.1.15,2013-08-03 12:18:00,
2013-08-03 08:24:00,66.3,66.3,29.75,ESE,107,0.0,0.0,100,0.00,,,0.00,Wunderground v.1.15,2013-08-03 12:24:00,
2013-08-03 08:28:00,66.4,66.4,29.75,ESE,109,0.0,0.0,100,0.00,,,0.00,Wunderground v.1.15,2013-08-03 12:28:00,
2013-08-03 08:34:00,66.6,66.3,29.75,ESE,109,0.0,0.0,99,0.00,,,0.00,Wunderground v.1.15,2013-08-03 12:34:00,
2013-08-03 08:43:00,67.2,66.9,29.75,ESE,109,0.0,0.0,99,0.00,,,0.00,Wunderground v.1.15,2013-08-03 12:43:00,
2013-08-03 08:48:00,67.5,67.2,29.75,ESE,109,0.0,0.0,99,0.00,,,0.00,Wunderground v.1.15,2013-08-03 12:48:00,
2013-08-03 08:58:00,67.7,66.8,29.75,ESE,109,0.0,0.0,97,0.00,,,0.00,Wunderground v.1.15,2013-08-03 12:58:00,
2013-08-03 09:03:00,68.1,67.2,29.75,ESE,109,0.0,0.0,97,0.00,,,0.00,Wunderground v.1.15,2013-08-03 13:03:00,
2013-08-03 09:08:00,68.4,67.2,29.75,ESE,109,0.0,0.0,96,0.00,,,0.00,Wunderground v.1.15,2013-08-03 13:08:00,
2013-08-03 09:13:00,68.8,67.6,29.75,ESE,109,0.0,0.0,96,0.00,,,0.00,Wunderground v.1.15,2013-08-03 13:13:00,
2013-08-03 09:18:00,69.3,67.8,29.75,ESE,109,0.0,0.0,95,0.00,,,0.00,Wunderground v.1.15,2013-08-03 13:18:00,
2013-08-03 09:24:00,69.2,67.1,29.75,ESE,109,0.0,0.0,93,0.00,,,0.00,Wunderground v.1.15,2013-08-03 13:24:00,
2013-08-03 09:29:00,69.4,67.3,29.75,ESE,109,0.0,0.0,93,0.00,,,0.00,Wunderground v.1.15,2013-08-03 13:29:00,
2013-08-03 09:39:00,69.7,66.6,29.75,ESE,109,0.0,0.0,90,0.00,,,0.00,Wunderground v.1.15,2013-08-03 13:39:00,
2013-08-03 09:48:00,69.9,66.8,29.75,ESE,110,0.0,0.0,90,0.00,,,0.00,Wunderground v.1.15,2013-08-03 13:48:00,
2013-08-03 09:54:00,70.1,67.0,29.75,ESE,109,0.0,0.0,90,0.00,,,0.00,Wunderground v.1.15,2013-08-03 13:54:00,
2013-08-03 09:59:00,70.3,66.9,29.75,ESE,109,0.0,0.0,89,0.00,,,0.00,Wunderground v.1.15,2013-08-03 13:59:00,
2013-08-03 10:03:00,70.6,67.2,29.74,ESE,109,0.0,0.0,89,0.00,,,0.00,Wunderground v.1.15,2013-08-03 14:03:00,
2013-08-03 10:13:00,71.0,67.3,29.74,ESE,111,0.0,0.0,88,0.00,,,0.00,Wunderground v.1.15,2013-08-03 14:13:00,
2013-08-03 10:18:00,71.1,67.0,29.74,ESE,109,0.0,0.0,87,0.00,,,0.00,Wunderground v.1.15,2013-08-03 14:18:00,
2013-08-03 10:24:00,71.3,67.2,29.75,ESE,109,0.0,0.0,87,0.00,,,0.00,Wunderground v.1.15,2013-08-03 14:24:00,
2013-08-03 10:28:00,71.4,66.7,29.75,ESE,109,0.0,0.0,85,0.00,,,0.00,Wunderground v.1.15,2013-08-03 14:28:00,
2013-08-03 10:33:00,71.5,67.1,29.75,ESE,109,0.0,0.0,86,0.00,,,0.00,Wunderground v.1.15,2013-08-03 14:33:00,
2013-08-03 10:44:00,72.0,67.9,29.75,ESE,109,0.0,0.0,87,0.00,,,0.00,Wunderground v.1.15,2013-08-03 14:44:00,
2013-08-03 10:53:00,72.3,67.5,29.75,ESE,109,0.0,0.0,85,0.00,,,0.00,Wunderground v.1.15,2013-08-03 14:53:00,
2013-08-03 10:59:00,72.4,67.3,29.75,ESE,109,0.0,0.0,84,0.00,,,0.00,Wunderground v.1.15,2013-08-03 14:59:00,
2013-08-03 11:08:00,72.4,67.3,29.75,ESE,109,0.0,0.0,84,0.00,,,0.00,Wunderground v.1.15,2013-08-03 15:08:00,
2013-08-03 11:13:00,72.7,67.6,29.75,ESE,109,0.0,0.0,84,0.00,,,0.00,Wunderground v.1.15,2013-08-03 15:13:00,
2013-08-03 11:18:00,73.1,68.0,29.75,ESE,109,0.0,0.0,84,0.00,,,0.00,Wunderground v.1.15,2013-08-03 15:18:00,
2013-08-03 11:24:00,73.5,67.7,29.75,ESE,109,0.0,0.0,82,0.00,,,0.00,Wunderground v.1.15,2013-08-03 15:24:00,
2013-08-03 11:29:00,74.0,68.5,29.74,ESE,109,0.0,0.0,83,0.00,,,0.00,Wunderground v.1.15,2013-08-03 15:29:00,
2013-08-03 11:34:00,74.4,68.2,29.74,ESE,109,0.0,0.0,81,0.00,,,0.00,Wunderground v.1.15,2013-08-03 15:34:00,
2013-08-03 11:44:00,74.8,67.8,29.74,ESE,109,0.0,0.0,79,0.00,,,0.00,Wunderground v.1.15,2013-08-03 15:44:00,
2013-08-03 11:54:00,75.1,67.8,29.73,ESE,109,0.0,0.0,78,0.00,,,0.00,Wunderground v.1.15,2013-08-03 15:54:00,
2013-08-03 12:03:00,76.0,68.3,29.73,ESE,109,0.0,0.0,77,0.00,,,0.00,Wunderground v.1.15,2013-08-03 16:03:00,
2013-08-03 12:09:00,76.3,68.6,29.73,ESE,109,0.0,0.0,77,0.00,,,0.00,Wunderground v.1.15,2013-08-03 16:09:00,
2013-08-03 12:14:00,76.6,68.5,29.73,ESE,109,0.0,0.0,76,0.00,,,0.00,Wunderground v.1.15,2013-08-03 16:14:00,
2013-08-03 12:19:00,76.9,68.8,29.73,ESE,109,0.0,0.0,76,0.00,,,0.00,Wunderground v.1.15,2013-08-03 16:19:00,
2013-08-03 12:29:00,77.1,68.2,29.73,ESE,109,0.0,0.0,74,0.00,,,0.00,Wunderground v.1.15,2013-08-03 16:29:00,
2013-08-03 12:34:00,77.3,67.6,29.73,ESE,109,0.0,0.0,72,0.00,,,0.00,Wunderground v.1.15,2013-08-03 16:34:00,
2013-08-03 12:38:00,77.5,67.4,29.73,ESE,109,0.0,0.0,71,0.00,,,0.00,Wunderground v.1.15,2013-08-03 16:38:00,
2013-08-03 12:44:00,77.7,68.0,29.73,ESE,109,0.0,0.0,72,0.00,,,0.00,Wunderground v.1.15,2013-08-03 16:44:00,
2013-08-03 12:53:00,78.1,67.1,29.73,ESE,109,0.0,1.0,69,0.00,,,0.00,Wunderground v.1.15,2013-08-03 16:53:00,
2013-08-03 12:58:00,78.1,65.8,29.73,ESE,109,0.0,0.0,66,0.00,,,0.00,Wunderground v.1.15,2013-08-03 16:58:00,
2013-08-03 13:03:00,78.0,67.0,29.73,ESE,107,0.0,0.0,69,0.00,,,0.00,Wunderground v.1.15,2013-08-03 17:03:00,
2013-08-03 13:09:00,77.6,65.3,29.73,ESE,107,0.0,0.0,66,0.00,,,0.00,Wunderground v.1.15,2013-08-03 17:09:00,
2013-08-03 13:19:00,77.5,65.7,29.73,ESE,106,0.0,0.0,67,0.00,,,0.00,Wunderground v.1.15,2013-08-03 17:19:00,
2013-08-03 13:23:00,77.6,66.2,29.73,ESE,106,0.0,0.0,68,0.00,,,0.00,Wunderground v.1.15,2013-08-03 17:23:00,
2013-08-03 13:29:00,77.9,66.5,29.73,ESE,106,0.0,1.0,68,0.00,,,0.00,Wunderground v.1.15,2013-08-03 17:29:00,
2013-08-03 13:34:00,78.0,66.2,29.73,ESE,106,0.0,1.0,67,0.00,,,0.00,Wunderground v.1.15,2013-08-03 17:34:00,
2013-08-03 13:38:00,78.2,65.9,29.73,ESE,106,0.0,1.0,66,0.00,,,0.00,Wunderground v.1.15,2013-08-03 17:38:00,
2013-08-03 13:49:00,78.7,66.8,29.73,ESE,106,0.0,0.0,67,0.00,,,0.00,Wunderground v.1.15,2013-08-03 17:49:00,
2013-08-03 13:59:00,78.3,66.9,29.73,ESE,106,0.0,0.0,68,0.00,,,0.00,Wunderground v.1.15,2013-08-03 17:59:00,
2013-08-03 14:04:00,78.2,65.9,29.73,ESE,106,0.0,0.0,66,0.00,,,0.00,Wunderground v.1.15,2013-08-03 18:04:00,
2013-08-03 14:09:00,78.0,66.2,29.73,ESE,106,0.0,0.0,67,0.00,,,0.00,Wunderground v.1.15,2013-08-03 18:09:00,
2013-08-03 14:19:00,78.4,66.1,29.73,ESE,106,0.0,1.0,66,0.00,,,0.00,Wunderground v.1.15,2013-08-03 18:19:00,
2013-08-03 14:24:00,78.7,65.9,29.73,ESE,106,0.0,1.0,65,0.00,,,0.00,Wunderground v.1.15,2013-08-03 18:24:00,
2013-08-03 14:29:00,78.7,65.0,29.73,ESE,106,0.0,3.0,63,0.00,,,0.00,Wunderground v.1.15,2013-08-03 18:29:00,
2013-08-03 14:34:00,78.6,65.8,29.73,ESE,106,0.0,3.0,65,0.00,,,0.00,Wunderground v.1.15,2013-08-03 18:34:00,
2013-08-03 14:39:00,78.7,65.5,29.73,ESE,106,0.0,0.0,64,0.00,,,0.00,Wunderground v.1.15,2013-08-03 18:39:00,
2013-08-03 14:48:00,78.7,67.2,29.73,ESE,106,0.0,0.0,68,0.00,,,0.00,Wunderground v.1.15,2013-08-03 18:48:00,
2013-08-03 14:53:00,78.5,67.1,29.73,ESE,106,0.0,0.0,68,0.00,,,0.00,Wunderground v.1.15,2013-08-03 18:53:00,
2013-08-03 14:58:00,78.3,67.7,29.73,ESE,106,0.0,0.0,70,0.00,,,0.00,Wunderground v.1.15,2013-08-03 18:58:00,
2013-08-03 15:04:00,78.2,67.6,29.73,ESE,106,0.0,0.0,70,0.00,,,0.00,Wunderground v.1.15,2013-08-03 19:04:00,
2013-08-03 15:09:00,78.0,66.2,29.72,ESE,106,0.0,0.0,67,0.00,,,0.00,Wunderground v.1.15,2013-08-03 19:09:00,
2013-08-03 15:14:00,78.0,67.0,29.72,ESE,106,0.0,0.0,69,0.00,,,0.00,Wunderground v.1.15,2013-08-03 19:14:00,
2013-08-03 15:19:00,78.0,66.6,29.72,ESE,106,0.0,0.0,68,0.00,,,0.00,Wunderground v.1.15,2013-08-03 19:19:00,
2013-08-03 15:24:00,77.9,67.3,29.72,ESE,106,0.0,0.0,70,0.00,,,0.00,Wunderground v.1.15,2013-08-03 19:24:00,
2013-08-03 15:34:00,78.2,65.0,29.72,ESE,106,0.0,0.0,64,0.00,,,0.00,Wunderground v.1.15,2013-08-03 19:34:00,
2013-08-03 15:39:00,78.3,65.6,29.72,ESE,106,1.0,1.0,65,0.00,,,0.00,Wunderground v.1.15,2013-08-03 19:39:00,
2013-08-03 15:44:00,78.4,66.1,29.72,ESE,106,0.0,1.0,66,0.00,,,0.00,Wunderground v.1.15,2013-08-03 19:44:00,
2013-08-03 15:53:00,78.7,65.0,29.72,ESE,106,0.0,1.0,63,0.00,,,0.00,Wunderground v.1.15,2013-08-03 19:53:00,
2013-08-03 15:58:00,78.7,65.5,29.72,ESE,106,0.0,1.0,64,0.00,,,0.00,Wunderground v.1.15,2013-08-03 19:58:00,
2013-08-03 16:04:00,78.9,65.7,29.72,ESE,106,1.0,1.0,64,0.00,,,0.00,Wunderground v.1.15,2013-08-03 20:04:00,
2013-08-03 16:08:00,78.9,65.2,29.71,ESE,106,0.0,0.0,63,0.00,,,0.00,Wunderground v.1.15,2013-08-03 20:08:00,
2013-08-03 16:14:00,78.9,65.7,29.71,ESE,106,0.0,0.0,64,0.00,,,0.00,Wunderground v.1.15,2013-08-03 20:14:00,
2013-08-03 16:19:00,78.7,65.9,29.71,ESE,106,0.0,0.0,65,0.00,,,0.00,Wunderground v.1.15,2013-08-03 20:19:00,
2013-08-03 16:29:00,78.7,65.9,29.71,ESE,106,0.0,1.0,65,0.00,,,0.00,Wunderground v.1.15,2013-08-03 20:29:00,
2013-08-03 16:38:00,78.9,66.6,29.70,ESE,106,0.0,0.0,66,0.00,,,0.00,Wunderground v.1.15,2013-08-03 20:38:00,
2013-08-03 16:44:00,78.9,66.6,29.70,ESE,106,0.0,0.0,66,0.00,,,0.00,Wunderground v.1.15,2013-08-03 20:44:00,
2013-08-03 16:48:00,78.8,66.5,29.70,ESE,106,0.0,0.0,66,0.00,,,0.00,Wunderground v.1.15,2013-08-03 20:48:00,
2013-08-03 16:54:00,78.7,65.9,29.70,ESE,106,0.0,0.0,65,0.00,,,0.00,Wunderground v.1.15,2013-08-03 20:54:00,
2013-08-03 16:59:00,78.7,66.4,29.70,ESE,106,0.0,1.0,66,0.00,,,0.00,Wunderground v.1.15,2013-08-03 20:59:00,
2013-08-03 17:09:00,78.7,65.9,29.70,ESE,106,0.0,1.0,65,0.00,,,0.00,Wunderground v.1.15,2013-08-03 21:09:00,
2013-08-03 17:14:00,78.6,66.3,29.70,ESE,106,0.0,1.0,66,0.00,,,0.00,Wunderground v.1.15,2013-08-03 21:14:00,
2013-08-03 17:19:00,78.5,66.2,29.70,ESE,106,0.0,0.0,66,0.00,,,0.00,Wunderground v.1.15,2013-08-03 21:19:00,
2013-08-03 17:24:00,78.4,66.5,29.70,ESE,106,0.0,0.0,67,0.00,,,0.00,Wunderground v.1.15,2013-08-03 21:24:00,
2013-08-03 17:29:00,78.2,66.3,29.70,ESE,106,0.0,0.0,67,0.00,,,0.00,Wunderground v.1.15,2013-08-03 21:29:00,
2013-08-03 17:34:00,78.2,65.9,29.70,ESE,106,0.0,0.0,66,0.00,,,0.00,Wunderground v.1.15,2013-08-03 21:34:00,
2013-08-03 17:43:00,78.1,65.8,29.70,ESE,106,0.0,4.0,66,0.00,,,0.00,Wunderground v.1.15,2013-08-03 21:43:00,
2013-08-03 17:49:00,78.1,65.8,29.70,ESE,106,0.0,0.0,66,0.00,,,0.00,Wunderground v.1.15,2013-08-03 21:49:00,
2013-08-03 17:58:00,78.0,66.2,29.70,ESE,106,0.0,0.0,67,0.00,,,0.00,Wunderground v.1.15,2013-08-03 21:58:00,
2013-08-03 18:03:00,77.8,66.4,29.70,ESE,106,0.0,0.0,68,0.00,,,0.00,Wunderground v.1.15,2013-08-03 22:03:00,
2013-08-03 18:09:00,77.6,66.6,29.70,ESE,106,0.0,0.0,69,0.00,,,0.00,Wunderground v.1.15,2013-08-03 22:09:00,
2013-08-03 18:14:00,77.4,66.0,29.70,ESE,106,0.0,0.0,68,0.00,,,0.00,Wunderground v.1.15,2013-08-03 22:14:00,
2013-08-03 18:18:00,77.3,66.7,29.70,ESE,106,0.0,0.0,70,0.00,,,0.00,Wunderground v.1.15,2013-08-03 22:18:00,
2013-08-03 18:24:00,77.1,66.1,29.70,ESE,102,0.0,0.0,69,0.00,,,0.00,Wunderground v.1.15,2013-08-03 22:24:00,
2013-08-03 18:28:00,76.9,66.4,29.70,ESE,102,0.0,0.0,70,0.00,,,0.00,Wunderground v.1.15,2013-08-03 22:28:00,
2013-08-03 18:33:00,76.8,66.7,29.70,ESE,102,0.0,0.0,71,0.00,,,0.00,Wunderground v.1.15,2013-08-03 22:33:00,
2013-08-03 18:39:00,76.6,66.5,29.70,ESE,102,0.0,0.0,71,0.00,,,0.00,Wunderground v.1.15,2013-08-03 22:39:00,
2013-08-03 18:48:00,76.1,66.8,29.71,ESE,102,0.0,0.0,73,0.00,,,0.00,Wunderground v.1.15,2013-08-03 22:48:00,
2013-08-03 18:53:00,75.8,66.5,29.71,ESE,102,0.0,0.0,73,0.00,,,0.00,Wunderground v.1.15,2013-08-03 22:53:00,
2013-08-03 19:03:00,75.3,66.4,29.71,ESE,102,0.0,0.0,74,0.00,,,0.00,Wunderground v.1.15,2013-08-03 23:03:00,
2013-08-03 19:09:00,75.2,66.7,29.71,ESE,102,0.0,0.0,75,0.00,,,0.00,Wunderground v.1.15,2013-08-03 23:09:00,
2013-08-03 19:14:00,75.2,66.7,29.71,ESE,102,0.0,0.0,75,0.00,,,0.00,Wunderground v.1.15,2013-08-03 23:14:00,
2013-08-03 19:19:00,75.2,67.1,29.72,ESE,102,0.0,0.0,76,0.00,,,0.00,Wunderground v.1.15,2013-08-03 23:19:00,
2013-08-03 19:23:00,75.1,66.6,29.72,ESE,102,0.0,0.0,75,0.00,,,0.00,Wunderground v.1.15,2013-08-03 23:23:00,
2013-08-03 19:29:00,75.0,66.9,29.72,ESE,102,0.0,0.0,76,0.00,,,0.00,Wunderground v.1.15,2013-08-03 23:29:00,
2013-08-03 19:34:00,74.7,66.6,29.72,ESE,102,0.0,0.0,76,0.00,,,0.00,Wunderground v.1.15,2013-08-03 23:34:00,
2013-08-03 19:39:00,74.5,66.8,29.72,ESE,102,0.0,0.0,77,0.00,,,0.00,Wunderground v.1.15,2013-08-03 23:39:00,
2013-08-03 19:48:00,74.1,66.4,29.72,ESE,102,0.0,0.0,77,0.00,,,0.00,Wunderground v.1.15,2013-08-03 23:48:00,
2013-08-03 19:53:00,73.9,66.6,29.72,ESE,102,0.0,0.0,78,0.00,,,0.00,Wunderground v.1.15,2013-08-03 23:53:00,
2013-08-03 19:59:00,73.7,66.4,29.72,ESE,102,0.0,0.0,78,0.00,,,0.00,Wunderground v.1.15,2013-08-03 23:59:00,
2013-08-03 20:03:00,73.4,66.1,29.72,ESE,102,0.0,0.0,78,0.00,,,0.00,Wunderground v.1.15,2013-08-04 00:03:00,
2013-08-03 20:14:00,72.9,66.0,29.72,ESE,102,0.0,0.0,79,0.00,,,0.00,Wunderground v.1.15,2013-08-04 00:14:00,
2013-08-03 20:19:00,72.6,65.7,29.73,ESE,102,0.0,0.0,79,0.00,,,0.00,Wunderground v.1.15,2013-08-04 00:19:00,
2013-08-03 20:24:00,72.4,65.9,29.73,ESE,102,0.0,0.0,80,0.00,,,0.00,Wunderground v.1.15,2013-08-04 00:24:00,
2013-08-03 20:34:00,71.9,65.4,29.73,ESE,102,0.0,0.0,80,0.00,,,0.00,Wunderground v.1.15,2013-08-04 00:34:00,
2013-08-03 20:44:00,71.7,65.6,29.74,ESE,102,0.0,0.0,81,0.00,,,0.00,Wunderground v.1.15,2013-08-04 00:44:00,
2013-08-03 20:49:00,71.5,65.7,29.74,ESE,102,0.0,0.0,82,0.00,,,0.00,Wunderground v.1.15,2013-08-04 00:49:00,
2013-08-03 20:59:00,71.0,65.2,29.74,ESE,102,0.0,0.0,82,0.00,,,0.00,Wunderground v.1.15,2013-08-04 00:59:00,
2013-08-03 21:09:00,70.4,65.0,29.75,ESE,102,0.0,0.0,83,0.00,,,0.00,Wunderground v.1.15,2013-08-04 01:09:00,
2013-08-03 21:19:00,69.7,65.0,29.75,ESE,102,0.0,0.0,85,0.00,,,0.00,Wunderground v.1.15,2013-08-04 01:19:00,
2013-08-03 21:24:00,69.4,65.0,29.75,ESE,102,0.0,0.0,86,0.00,,,0.00,Wunderground v.1.15,2013-08-04 01:24:00,
2013-08-03 21:29:00,69.1,64.7,29.76,ESE,102,0.0,0.0,86,0.00,,,0.00,Wunderground v.1.15,2013-08-04 01:29:00,
2013-08-03 21:39:00,68.4,64.0,29.76,ESE,102,0.0,0.0,86,0.00,,,0.00,Wunderground v.1.15,2013-08-04 01:39:00,
2013-08-03 21:49:00,67.8,63.8,29.76,ESE,102,0.0,0.0,87,0.00,,,0.00,Wunderground v.1.15,2013-08-04 01:49:00,
2013-08-03 21:59:00,67.4,63.7,29.76,ESE,102,0.0,0.0,88,0.00,,,0.00,Wunderground v.1.15,2013-08-04 01:59:00,
2013-08-03 22:04:00,67.2,63.5,29.76,ESE,102,0.0,0.0,88,0.00,,,0.00,Wunderground v.1.15,2013-08-04 02:04:00,
2013-08-03 22:14:00,66.8,63.5,29.76,ESE,102,0.0,0.0,89,0.00,,,0.00,Wunderground v.1.15,2013-08-04 02:14:00,
2013-08-03 22:24:00,66.3,63.0,29.76,ESE,102,0.0,0.0,89,0.00,,,0.00,Wunderground v.1.15,2013-08-04 02:24:00,
2013-08-03 22:34:00,65.8,62.5,29.77,ESE,102,0.0,0.0,89,0.00,,,0.00,Wunderground v.1.15,2013-08-04 02:34:00,
2013-08-03 22:39:00,65.6,62.3,29.77,ESE,102,0.0,0.0,89,0.00,,,0.00,Wunderground v.1.15,2013-08-04 02:39:00,
2013-08-03 22:43:00,65.4,62.1,29.76,ESE,102,0.0,0.0,89,0.00,,,0.00,Wunderground v.1.15,2013-08-04 02:43:00,
2013-08-03 22:54:00,65.1,61.8,29.76,ESE,102,0.0,0.0,89,0.00,,,0.00,Wunderground v.1.15,2013-08-04 02:54:00,
2013-08-03 22:59:00,64.9,61.6,29.76,ESE,102,0.0,0.0,89,0.00,,,0.00,Wunderground v.1.15,2013-08-04 02:59:00,
2013-08-03 23:04:00,64.8,61.5,29.76,ESE,102,0.0,0.0,89,0.00,,,0.00,Wunderground v.1.15,2013-08-04 03:04:00,
2013-08-03 23:14:00,64.5,61.2,29.76,ESE,102,0.0,0.0,89,0.00,,,0.00,Wunderground v.1.15,2013-08-04 03:14:00,
2013-08-03 23:23:00,64.3,61.0,29.77,ESE,102,0.0,0.0,89,0.00,,,0.00,Wunderground v.1.15,2013-08-04 03:23:00,
2013-08-03 23:29:00,64.1,60.8,29.77,ESE,102,0.0,0.0,89,0.00,,,0.00,Wunderground v.1.15,2013-08-04 03:29:00,
2013-08-03 23:34:00,64.1,60.8,29.77,ESE,102,0.0,0.0,89,0.00,,,0.00,Wunderground v.1.15,2013-08-04 03:34:00,
2013-08-03 23:39:00,64.0,60.7,29.77,ESE,102,0.0,0.0,89,0.00,,,0.00,Wunderground v.1.15,2013-08-04 03:39:00,
2013-08-03 23:48:00,63.9,60.6,29.77,ESE,102,0.0,0.0,89,0.00,,,0.00,Wunderground v.1.15,2013-08-04 03:48:00,
2013-08-03 23:54:00,63.9,60.6,29.77,ESE,102,0.0,0.0,89,0.00,,,0.00,Wunderground v.1.15,2013-08-04 03:54:00,
2013-08-03 23:59:00,63.9,60.3,29.77,ESE,102,0.0,0.0,88,0.00,,,0.00,Wunderground v.1.15,2013-08-04 03:59:00,